Location: Alsip
(41.6689°N, 87.7387°W)
Time: 15:03:05
(UTC+00:00)

XW-2B - Pass Details

Date: 23 October 2021
Orbit: 504 x 522 km, 97.5° (Epoch: 04 December)

Event Time Altitude Azimuth Distance (km) Brightness Sun altitude
Rises 10:47:17 0° 34° (NE) 2,613 ? -16.6°
Reaches altitude 10° 10:50:27 10° 64° (ENE) 1,723 ? -16.0°
Maximum altitude 10:52:09 13° 91° (E) 1,556 ? -15.7°
Drops below altitude 10° 10:53:50 10° 119° (ESE) 1,719 ? -15.4°
Sets 10:56:58 0° 149° (SSE) 2,600 ? -14.8°
